Hourly Data Report for October 04, 2017

All times are specified in Local Standard Time (LST). Add 1 hour to adjust for Daylight Saving Time where and when it is observed.

QIKIQTARJUAQ A
NUNAVUT

67°32'48.000" N
64°01'54.000" W
5.50 m
2400577
YVM

Download Data

Hourly Data (October 2017)
Hourly Data Report for October 4, 2017
Temp Definition
°C
Dew Point Temp Definition
°C
Rel Hum Definition
%
Wind Dir Definition
10's deg

Wind Spd Definition
km/h
Visibility Definition
km
Stn Press Definition
kPa
Hmdx Definition


Wind Chill Definition


Weather Definition


TIME
00:00 Legend Double Dagger 1.3 0.1 91 32 11 16.1 98.16     LegendNANA
01:00 Legend Double Dagger 1.0 -0.4 91 32 5 11.3 98.19     LegendNANA
02:00 Legend Double Dagger 0.3 0.3 100 6 15 1.0 98.22     Snow
03:00 Legend Double Dagger 0.2 0.2 100 3 22 1.2 98.29     Snow
04:00 Legend Double Dagger 0.1 0.1 100   0 2.0 98.33     Snow
05:00 Legend Double Dagger -0.1 -0.1 100 22 8 1.2 98.43   -3 Snow
06:00 Legend Double Dagger -0.7 -0.8 99 28 9 1.0 98.57   -4 Snow
07:00 Legend Double Dagger -1.1 -2.7 89 2 18 4.8 98.70   -6 Snow
08:00 Legend Double Dagger -0.8 -4.1 78 1 18 16.1 98.77   -6 LegendNANA
09:00 Legend Double Dagger -2.6 -5.1 83   0 16.1 98.85     LegendNANA
10:00 Legend Double Dagger -1.4 -5.3 75 20 5 16.1 98.91   -3 LegendNANA
11:00 Legend Double Dagger -2.8 -6.3 77 18 13 16.1 98.97   -7 LegendNANA
12:00 Legend Double Dagger -0.8 -4.3 77 21 11 16.1 99.02   -5 LegendNANA
13:00 Legend Double Dagger -0.9 -7.5 61 18 13 16.1 99.09   -5 LegendNANA
14:00 Legend Double Dagger -1.9 -6.3 72 20 17 16.1 99.19   -7 LegendNANA
15:00 Legend Double Dagger -2.2 -8.5 62 19 21 16.1 99.29   -8 LegendNANA
16:00 Legend Double Dagger -0.7 -11.9 43 24 24 16.1 99.43   -7 LegendNANA
17:00 Legend Double Dagger -2.4 -10.0 56 17 18 16.1 99.52   -8 LegendNANA
18:00 Legend Double Dagger -1.7 -11.1 49 19 21 16.1 99.61   -8 LegendNANA
19:00 Legend Double Dagger -2.2 -9.4 58 18 26 16.1 99.69   -9 LegendNANA
20:00 Legend Double Dagger -2.2 -8.5 62 16 24 16.1 99.77   -9 LegendNANA
21:00 Legend Double Dagger -2.1 -8.8 60 17 24 16.1 99.86   -8 LegendNANA
22:00 Legend Double Dagger -2.2 -9.9 56 17 17 16.1 99.92   -8 LegendNANA
23:00 Legend Double Dagger -2.0 -9.9 55 18 22 16.1 99.98   -8 LegendNANA

Notes on Data Quality.

Legend

  • E = Estimated
  • M = Missing
  • NA = Not Available
  • ‡ = Partner data that is not subject to review by the National Climate Archives
Date modified: